Zurück zum Katalog

ONEWEB-0423

AktivKommunikationPO
NORAD 51627·PAYLOAD·🇬🇧 United Kingdom

Gestartet Feb 10, 2022 von Guiana Space Centre

Loading…

Nächste Überflüge (nächste 24 Stunden)

TLE

AktuellSource: CelesTrak SupGP

Epoche: Sep 14, 2026, 20:21 UTC

1 51627C 22012F   26257.84845324 -.00002879  00000+0 -74235-2 0  2575
2 51627  87.9202 348.0593 0001949 104.7814   4.9677 13.17651818    16

Verfolge ONEWEB-0423 in Echtzeit mit AllMySat

Download on the App Store